Regional Weather Roundup
Issued by NWS

Home | Current Version | Previous Version | Graphics & Text | Print | Product List | Glossary On
Versions: 1 2 3 4 5 6 7 8 9 10 11 12 13 14 15 16 17 18 19 20 21 22 23 24 25 26 27 28 29 30 31 32 33 34 35 36 37 38 39 40 41 42 43 44 45 46 47 48 49 50
000
ASUS43 KLSX 212007
RWRMO

WEATHER SUMMARY FOR MISSOURI
NATIONAL WEATHER SERVICE SPRINGFIELD MO
300 PM CDT SAT OCT 21 2017

NOTE: "FAIR" INDICATES FEW OR NO CLOUDS BELOW 12,000 FEET WITH NO
       SIGNIFICANT WEATHER AND/OR OBSTRUCTIONS TO VISIBILITY.
       CURRENT SKY AND/OR WEATHER CONDITIONS ARE NOT AVAILABLE FOR
       CHILLICOTHE AND FARMINGTON.

MOZ001>031-035>038-043-044-053-054-212100-
...NORTHERN AND WESTERN MISSOURI...

CITY           SKY/WX    TMP DP  RH WIND       PRES   REMARKS
KANSAS CTY INT CLOUDY    74  64  71 S17       29.80F
KANSAS C DTWN  CLOUDY    77  65  66 S14G24    29.81S
LEE`S SUMMIT   CLOUDY    76  64  66 S24G36    29.83S
ST JOSEPH      LGT RAIN  73  65  75 S17       29.78F
CHILLICOTHE      N/A     76  63  64 S10G22    29.84R
KIRKSVILLE     CLOUDY    78  62  57 S17G25    29.86S

$$
MOZ066>068-077>081-088>096-101>105-212100-
...SOUTHWEST MISSOURI...

CITY           SKY/WX    TMP DP  RH WIND       PRES   REMARKS
SPRINGFIELD    MOSUNNY   80  63  55 S25G37    29.90F
JOPLIN         PTSUNNY   77  64  64 S23G31    29.88R
BRANSON        PTSUNNY   77  63  61 S14G21    29.96F

$$
MOZ032>034-039>042-045>050-055>058-069>072-212100-
...CENTRAL MISSOURI...

CITY           SKY/WX    TMP DP  RH WIND       PRES   REMARKS
COLUMBIA       MOSUNNY   77  63  61 S20       29.90F
JEFFERSON CITY MOSUNNY   78  61  55 S14G23    29.91F
ROLLA          PTSUNNY   76  63  64 S18G24    29.97F
SEDALIA        PTSUNNY   80  64  58 S20       29.88F
WHITEMAN AFB   PTSUNNY   77  64  63 S20       29.81F
WARRENSBURG    CLOUDY    79  61  53 S15G25    29.83F
OSAGE BEACH    CLOUDY    76  64  66 S9        29.92F

$$
MOZ051-052-059>065-212100-
...EAST CENTRAL MISSOURI...

CITY           SKY/WX    TMP DP  RH WIND       PRES   REMARKS
ST LOUIS INTL  PTSUNNY   77  62  59 S17G25    29.98F
SPIRIT OF STL  PTSUNNY   79  63  57 S10G17    29.96F
ST CHARLES       N/A     76  62  62 SE16G24   29.97F

$$
MOZ072>076-082>087-097>100-106>115-212100-
...SOUTH CENTRAL AND SOUTHEAST MISSOURI...

CITY           SKY/WX    TMP DP  RH WIND       PRES   REMARKS
CAPE GIRARDEAU SUNNY     81  55  40 S16       30.05F
FARMINGTON     PTSUNNY   78  63  59 S17G23    30.02F
POPLAR BLUFF   PTSUNNY   81  60  48 S16G23    30.02F
WEST PLAINS    CLOUDY    73  66  78 S14       30.02S

$$



USA.gov is the U.S. government's official web portal to all federal, state and local government web resources and services.